Wind_Speed
23 23 27 27 25 24 24 23 22 20 19 19 18 18 17 17 16 15 14 16 18 20 21 20 18 18 18 17 17 16 13 13 14 10 7 11 11 14 13 14 13 12 13 11 10
23 23 27 29 26 25 24 23 22 22 21 21 20 19 18 17 17 16 16 15 17 19 21 21 20 20 20 20 20 19 16 13 15 13 13 13 11 16 14 15 14 14 13 14 14
27 24 24 29 29 29 28 26 24 25 24 23 22 20 20 19 18 17 16 17 16 17 20 22 22 20 23 23 23 24 26 16 21 17 18 17 15 16 14 16 13 13 17 15 15
30 30 27 29 30 31 32 30 29 27 26 25 24 22 22 19 12 13 16 17 18 16 18 20 23 23 22 25 26 27 26 27 24 22 22 19 19 17 18 14 16 16 18 16 17
33 33 32 31 29 30 31 32 33 32 30 26 25 23 24 23 21 16 10 11 14 17 17 19 21 23 23 23 26 26 27 28 25 25 26 26 24 25 24 17 18 18 18 20 19
35 35 35 34 34 33 32 30 31 29 33 30 28 26 27 27 22 20 18 17 15 14 14 18 21 22 23 25 25 25 25 30 29 26 28 28 25 29 22 18 18 20 18 19 19
36 36 37 37 36 36 35 33 31 31 32 33 32 35 35 27 23 23 21 20 18 17 18 14 19 21 23 24 26 26 29 28 28 24 29 29 32 33 22 23 22 21 20 21 19
38 38 38 37 38 38 37 35 35 33 33 34 34 32 42 35 31 27 25 21 19 18 19 21 18 21 23 24 23 20 22 20 20 25 29 26 34 20 20 16 20 22 23 22 21
40 39 38 37 38 39 40 36 37 36 35 35 35 34 39 39 38 32 31 30 28 24 20 22 22 22 22 22 19 19 15 14 16 22 25 25 31 26 25 26 25 23 21 20 23
43 42 40 39 37 38 39 39 38 38 38 38 41 34 34 24 32 34 34 30 32 29 26 25 25 26 25 22 17 19 19 19 19 15 17 21 30 28 27 25 17 22 23 25 23
46 44 44 41 40 38 37 38 37 40 46 47 40 38 31 21 29 23 35 32 32 32 31 29 30 36 32 28 21 18 19 17 14 22 24 26 32 32 26 28 33 28 23 21 23
37 39 41 42 40 36 39 37 36 35 40 47 46 47 39 37 32 30 27 34 36 37 32 33 42 32 28 25 27 28 23 20 19 26 28 31 36 36 33 32 31 26 28 25 25
30 30 25 32 32 35 33 36 33 33 40 49 48 49 45 43 41 36 33 32 31 33 38 38 27 25 33 30 30 30 29 22 21 21 25 30 41 38 34 34 32 33 28 28 29
37 31 26 25 31 27 31 27 30 24 19 29 45 56 49 46 52 44 38 32 32 34 34 32 35 28 24 33 32 25 26 25 22 16 8 9 13 23 17 23 27 30 31 30 30
40 38 35 33 35 31 28 23 21 17 7 17 30 42 43 59 38 41 42 42 37 36 31 25 25 36 38 27 27 21 20 15 16 19 17 19 13 15 17 27 28 19 23 28 30
44 41 34 40 36 34 28 28 23 16 15 14 21 30 40 46 45 28 37 42 36 32 37 31 26 23 27 33 33 23 17 9 8 6 8 20 18 23 24 25 23 21 25 20 27
46 46 42 41 39 34 33 33 32 26 22 21 20 22 32 39 41 42 47 49 44 28 35 31 38 35 28 27 25 25 15 3 3 4 7 6 15 29 12 13 10 15 22 25 27
55 43 44 45 43 37 36 44 29 51 49 20 18 21 33 29 41 39 42 53 54 39 20 29 16 34 36 36 33 37 29 12 7 6 4 11 14 18 17 16 24 28 25 25 29
42 44 48 48 42 39 46 52 49 44 52 36 18 20 31 35 26 39 47 55 56 53 33 28 23 26 28 36 34 26 29 28 11 9 4 12 25 31 26 25 27 25 22 22 23
38 42 45 45 51 54 48 62 65 61 31 36 46 27 26 35 32 42 39 49 53 49 42 23 10 19 28 29 35 31 28 14 15 7 11 19 29 25 13 7 14 28 29 28 25
36 42 42 39 46 54 50 35 67 68 47 36 39 53 38 32 40 37 37 38 46 48 47 39 22 13 27 38 35 31 29 23 18 25 8 7 17 26 25 21 29 20 18 28 27
37 44 42 41 51 51 54 49 32 59 66 43 35 35 55 45 38 48 42 38 24 44 42 52 24 19 36 24 31 36 38 43 22 12 27 20 31 18 10 13 18 22 21 20 21
42 44 45 47 53 57 52 46 43 46 53 54 53 34 33 56 39 42 49 36 31 30 43 43 31 21 11 20 34 44 44 38 37 16 25 12 24 26 38 27 12 12 22 20 20
43 31 37 55 49 51 50 54 46 50 47 58 42 45 35 36 46 39 37 37 37 34 42 37 44 47 31 48 30 35 46 44 42 31 40 39 52 35 17 17 23 26 17 15 17
39 43 32 35 57 55 53 54 49 42 44 48 52 52 38 43 45 42 48 35 39 41 40 45 37 53 58 48 27 40 52 52 42 58 36 53 54 45 41 37 30 26 36 29 20
33 36 29 38 31 39 54 52 49 43 51 45 60 41 51 40 56 40 43 47 37 43 44 51 36 45 50 52 47 27 40 50 59 62 52 54 55 40 38 38 34 37 25 29 27
35 36 27 28 34 36 45 48 49 50 52 47 52 54 50 64 48 50 47 46 49 40 40 50 40 34 38 51 42 35 39 46 48 61 61 54 58 39 32 31 26 24 44 38 29
Wind_Direction
263 257 243 239 234 230 232 236 236 236 241 245 248 254 255 254 252 248 249 244 238 229 227 223 223 229 230 229 229 229 233 240 234 235 243 247 242 240 242 250 251 254 255 259 255
263 256 246 247 243 240 235 235 240 241 241 244 245 249 252 253 252 246 245 243 242 233 230 227 224 226 232 234 231 226 235 248 239 222 236 250 242 246 250 257 257 255 256 262 266
265 261 253 250 252 252 248 245 241 242 242 241 243 244 249 251 253 249 245 244 240 237 233 232 228 228 231 233 234 233 236 243 246 246 245 249 250 248 248 249 257 261 261 260 265
261 259 256 251 253 255 256 252 253 247 241 240 239 239 243 244 246 250 244 243 242 237 234 234 234 231 234 238 239 238 246 246 253 254 255 253 249 254 248 244 256 259 263 265 266
261 261 260 259 254 253 254 252 254 254 241 239 240 238 239 239 235 238 227 227 236 238 234 234 235 234 236 245 247 247 244 252 253 255 255 255 253 258 249 247 254 257 262 266 264
258 258 257 256 256 254 254 251 252 250 240 240 240 240 237 237 237 237 240 243 244 248 241 236 238 236 238 241 244 249 249 255 255 253 258 259 258 258 251 254 255 258 257 261 259
258 257 256 255 255 253 253 254 252 252 246 244 244 242 241 230 235 235 236 244 244 248 247 240 236 238 240 246 247 252 256 257 256 259 260 261 261 257 269 260 251 253 255 256 255
257 256 256 254 255 256 254 253 253 252 252 250 250 248 244 235 238 237 237 240 243 242 248 242 237 235 237 244 250 256 261 264 262 258 259 260 258 263 258 261 255 252 251 252 250
261 258 256 256 254 253 255 252 251 250 250 250 251 247 246 239 238 238 242 241 238 236 238 245 238 235 235 238 246 253 252 259 265 266 260 255 262 266 266 261 255 253 249 253 246
260 260 258 255 254 253 251 252 251 251 246 244 246 250 244 245 239 236 239 238 236 233 234 235 237 236 231 218 222 232 239 246 245 275 263 264 261 260 258 261 251 252 250 248 248
259 257 258 256 256 255 254 250 249 248 246 243 245 246 241 247 238 233 229 230 231 232 229 233 233 232 238 244 244 240 236 247 247 260 272 272 271 263 254 251 253 251 254 245 241
259 254 252 253 253 253 253 246 245 244 248 245 242 243 238 244 241 227 220 222 223 227 226 230 236 239 242 241 239 243 248 251 262 265 272 273 270 266 260 253 254 254 249 247 240
250 246 248 248 250 247 245 248 245 243 248 247 245 244 240 240 238 231 225 223 225 230 229 232 236 243 237 235 236 239 243 244 253 272 278 284 281 273 268 261 253 250 247 244 244
239 238 230 238 234 233 239 240 244 247 258 255 247 244 230 232 240 229 222 224 226 229 230 240 234 238 239 238 235 240 251 249 249 263 261 286 289 264 258 264 254 250 248 246 244
241 233 219 223 228 232 228 222 229 236 260 252 227 238 233 230 231 234 228 225 227 229 218 229 233 231 231 236 227 230 247 255 249 252 276 261 270 278 277 265 256 256 247 245 245
244 233 229 218 224 229 228 215 208 184 236 221 204 215 211 218 217 226 222 216 224 227 232 236 244 233 237 235 236 239 232 234 234 224 253 247 230 272 259 271 276 253 245 240 238
243 233 225 214 223 222 216 205 198 207 225 222 202 197 199 201 201 215 212 205 205 197 216 226 233 234 226 218 211 211 198 125 203 182 247 254 213 245 239 260 266 251 241 241 241
249 242 229 220 215 220 213 209 217 217 214 229 206 205 196 193 206 206 208 215 216 214 217 208 219 218 221 223 219 214 199 188 205 187 249 215 234 261 272 256 269 266 258 248 244
253 244 241 228 215 209 224 216 214 219 224 216 212 192 202 203 211 205 210 215 218 208 206 205 227 236 221 215 214 199 208 215 246 236 281 236 260 269 271 259 264 256 255 249 245
249 251 247 234 220 215 225 221 227 219 224 224 224 216 209 205 204 206 207 222 221 221 209 219 222 214 210 198 211 218 208 186 209 213 237 249 253 249 258 280 266 251 243 238 239
242 242 237 238 238 238 234 232 225 223 223 229 228 229 228 220 216 216 216 221 219 217 212 215 217 195 196 203 198 194 198 205 203 215 211 257 248 249 251 263 255 262 262 248 253
234 237 236 229 232 232 234 243 225 229 229 228 230 232 224 226 223 222 224 222 217 213 211 208 225 218 213 212 205 220 216 203 196 195 227 248 261 235 223 242 247 245 250 244 247
230 238 232 229 228 235 239 242 247 243 226 234 235 224 220 231 234 225 225 222 221 210 209 210 216 210 195 225 215 215 211 215 217 224 210 196 255 259 242 232 257 266 250 262 248
230 221 221 222 225 234 233 239 243 252 239 230 236 232 231 225 230 238 232 230 225 228 216 210 218 217 218 221 215 215 212 209 212 216 225 217 249 238 232 239 238 237 242 254 261
236 224 217 221 228 236 235 237 238 234 245 244 233 236 237 231 228 233 235 238 231 226 219 212 222 222 228 231 225 226 223 212 208 219 213 232 239 252 252 249 243 230 243 251 255
231 228 223 225 226 226 221 226 233 240 236 237 243 235 234 236 230 230 227 228 234 227 228 218 221 223 231 233 234 240 228 227 220 226 221 234 242 250 255 258 258 239 236 237 248
233 237 247 242 236 236 231 234 238 239 241 245 245 240 245 240 233 241 232 237 241 241 233 227 224 224 224 232 233 238 225 226 231 231 228 224 241 243 253 251 257 252 232 235 235
Height
3092 3092 3092 3093 3094 3095 3096 3096 3097 3098 3099 3100 3100 3100 3100 3100 3101 3101 3102 3103 3103 3105 3106 3108 3110 3113 3114 3116 3118 3120 3122 3122 3123 3122 3123 3121 3122 3123 3124 3125 3126 3126 3126 3127 3126
3088 3088 3088 3088 3090 3091 3091 3092 3093 3094 3094 3096 3096 3097 3097 3097 3097 3098 3100 3099 3100 3102 3103 3105 3107 3109 3111 3113 3115 3117 3117 3120 3120 3119 3119 3120 3120 3120 3122 3122 3123 3124 3124 3124 3124
3083 3083 3083 3084 3085 3086 3088 3088 3089 3090 3090 3091 3093 3093 3095 3094 3095 3095 3096 3097 3097 3099 3101 3103 3104 3106 3108 3109 3110 3112 3111 3116 3115 3115 3116 3117 3118 3117 3119 3120 3121 3121 3120 3121 3121
3077 3078 3079 3079 3079 3080 3082 3083 3084 3085 3086 3087 3088 3089 3091 3091 3095 3092 3093 3094 3095 3096 3098 3099 3101 3103 3105 3105 3106 3107 3109 3110 3111 3112 3112 3113 3114 3114 3115 3118 3117 3118 3118 3118 3119
3069 3070 3071 3073 3074 3074 3077 3077 3078 3080 3081 3082 3084 3084 3086 3087 3089 3089 3090 3091 3092 3093 3095 3096 3098 3100 3101 3102 3102 3103 3105 3105 3107 3107 3108 3108 3109 3109 3110 3113 3114 3114 3115 3115 3115
3062 3063 3065 3067 3068 3068 3070 3071 3073 3074 3076 3077 3079 3080 3080 3082 3084 3085 3087 3089 3089 3091 3092 3093 3095 3096 3097 3098 3099 3097 3100 3101 3102 3103 3103 3103 3105 3103 3107 3110 3110 3110 3111 3111 3112
3053 3055 3056 3058 3061 3062 3063 3065 3066 3068 3070 3072 3073 3074 3072 3078 3078 3080 3082 3085 3086 3087 3090 3090 3091 3093 3094 3095 3094 3095 3096 3096 3097 3100 3098 3099 3098 3097 3104 3104 3105 3106 3107 3108 3108
3045 3046 3048 3049 3051 3053 3055 3058 3060 3062 3063 3064 3066 3066 3063 3070 3072 3075 3077 3080 3081 3082 3085 3086 3087 3088 3090 3091 3092 3094 3093 3093 3093 3095 3095 3097 3091 3095 3098 3099 3100 3101 3102 3103 3104
3036 3038 3039 3041 3043 3045 3047 3050 3053 3055 3056 3057 3058 3059 3057 3062 3067 3071 3072 3073 3075 3077 3079 3082 3082 3083 3085 3087 3089 3088 3090 3090 3092 3089 3090 3090 3088 3091 3094 3094 3096 3097 3097 3099 3100
3024 3027 3030 3032 3033 3036 3039 3042 3043 3045 3046 3048 3048 3057 3052 3055 3058 3062 3065 3067 3069 3072 3074 3076 3077 3078 3080 3082 3083 3083 3084 3086 3086 3085 3085 3084 3082 3087 3089 3089 3090 3091 3092 3094 3096
3013 3017 3019 3022 3025 3027 3031 3034 3038 3036 3033 3036 3041 3044 3046 3049 3053 3054 3058 3061 3064 3066 3066 3070 3071 3065 3072 3077 3081 3080 3082 3082 3084 3081 3081 3080 3077 3079 3082 3081 3084 3087 3089 3090 3092
3000 3005 3008 3012 3015 3019 3018 3021 3026 3026 3024 3024 3029 3033 3037 3042 3046 3048 3050 3053 3055 3056 3062 3063 3056 3067 3071 3073 3074 3076 3076 3077 3079 3078 3078 3076 3070 3072 3074 3076 3078 3081 3084 3086 3088
2991 2994 2999 3002 3007 3007 3008 3012 3017 3017 3015 3014 3018 3023 3031 3036 3035 3039 3044 3047 3049 3052 3053 3054 3059 3062 3065 3066 3068 3069 3071 3074 3077 3075 3074 3071 3061 3065 3069 3068 3071 3074 3078 3080 3083
2981 2985 2990 2996 2997 2999 3001 3009 3010 3012 3013 2997 3003 3002 3017 3022 3021 3030 3036 3044 3043 3045 3050 3050 3053 3055 3059 3059 3065 3066 3067 3070 3073 3074 3074 3072 3059 3059 3061 3061 3064 3068 3071 3075 3077
2970 2975 2981 2986 2987 2992 2999 3003 3007 3010 3011 2989 2986 2992 3004 3002 3014 3018 3030 3034 3033 3039 3043 3041 3043 3046 3051 3054 3060 3062 3064 3068 3069 3070 3070 3069 3070 3051 3054 3055 3060 3063 3065 3068 3070
2958 2964 2970 2975 2979 2985 2992 2997 3002 3008 2985 2976 2973 2977 2986 2991 3005 3011 3017 3025 3031 3034 3034 3038 3038 3042 3044 3049 3056 3059 3062 3065 3067 3068 3066 3061 3066 3043 3051 3052 3055 3058 3059 3060 3063
2947 2952 2958 2964 2968 2977 2984 2987 2989 2980 2965 2965 2965 2970 2979 2983 2996 2997 3003 3007 3012 3023 3021 3028 3030 3034 3039 3042 3048 3053 3059 3065 3068 3066 3056 3055 3058 3037 3046 3048 3050 3053 3054 3055 3057
2934 2940 2944 2950 2959 2967 2971 2972 2961 2946 2951 2956 2962 2967 2971 2980 2986 2988 2996 2997 3001 3007 3016 3018 3025 3023 3027 3032 3036 3042 3050 3050 3051 3053 3050 3053 3044 3033 3039 3043 3046 3048 3050 3050 3051
2924 2927 2932 2937 2946 2954 2956 2944 2937 2935 2948 2957 2963 2965 2966 2972 2977 2983 2984 2985 2989 2994 3005 3010 3014 3016 3018 3026 3033 3038 3039 3047 3047 3048 3050 3042 3031 3030 3035 3038 3041 3042 3043 3045 3046
2909 2914 2918 2931 2935 2937 2929 2925 2928 2932 2945 2951 2953 2956 2960 2965 2971 2974 2978 2974 2982 2989 2999 3004 3009 3009 3014 3021 3023 3026 3036 3041 3043 3045 3048 3030 3027 3022 3028 3031 3033 3032 3035 3038 3040
2899 2899 2907 2919 2921 2913 2904 2909 2920 2926 2935 2941 2945 2950 2953 2959 2963 2964 2964 2969 2974 2979 2990 2999 3001 3005 3006 3002 3008 3018 3022 3026 3032 3032 3028 3023 3017 3019 3021 3026 3028 3030 3030 3034 3036
2888 2887 2899 2905 2902 2896 2897 2902 2911 2917 2926 2931 2933 2938 2945 2952 2952 2957 2957 2962 2969 2976 2978 2985 2995 2996 2994 3003 3006 3007 3007 3012 3014 3016 3022 3024 3006 3014 3016 3019 3021 3024 3025 3028 3031
2875 2879 2886 2890 2884 2886 2892 2896 2901 2908 2916 2923 2923 2929 2937 2940 2945 2947 2951 2961 2965 2967 2970 2978 2980 2988 2993 2998 2994 2988 2998 3006 3010 3015 3013 3020 2993 3006 3011 3014 3017 3020 3022 3024 3026
2865 2865 2872 2871 2874 2882 2887 2888 2898 2899 2906 2913 2917 2925 2927 2929 2934 2938 2944 2952 2957 2959 2965 2970 2972 2970 2964 2960 2976 2983 2985 2993 3002 3008 2995 3001 2989 3000 3005 3008 3012 3016 3018 3019 3021
2854 2854 2859 2860 2866 2870 2878 2884 2887 2891 2897 2903 2904 2909 2915 2921 2928 2930 2938 2944 2949 2952 2956 2960 2958 2961 2958 2962 2972 2970 2974 2983 2989 2983 2996 2982 2987 2991 2998 3003 3008 3009 3011 3014 3017
2845 2847 2851 2855 2859 2862 2865 2870 2875 2881 2887 2890 2894 2901 2907 2907 2917 2925 2933 2938 2939 2945 2946 2949 2946 2951 2951 2955 2962 2962 2964 2971 2977 2975 2981 2980 2979 2988 2992 2995 2998 3003 3005 3009 3012
2841 2843 2846 2849 2851 2856 2857 2861 2866 2873 2877 2882 2889 2894 2895 2903 2913 2920 2926 2930 2933 2938 2936 2941 2935 2942 2938 2945 2951 2950 2954 2956 2960 2966 2970 2974 2963 2988 2983 2984 2990 2993 2996 3002 3007